| time (UTC) | temp F | wind direction | speed MPH | gust MPH | rain 1hr in | rain 24hr in | rain mn in | humidity % | barometer mb |
| 20260504232505 | 74 | 320 | 19.0 | 29.0 | 0.00 | 0.00 | 0.00 | 100 | 1000.8 |
| 20260504231505 | 75 | 321 | 20.0 | 28.0 | 0.00 | 0.00 | 0.00 | 100 | 1000.6 |
| 20260504230505 | 77 | 324 | 20.0 | 26.0 | 0.00 | 0.00 | 0.00 | 100 | 1000.3 |
| 20260504225505 | 77 | 316 | 17.0 | 24.0 | 0.00 | 0.00 | 0.00 | 100 | 1000.3 |
| 20260504224505 | 78 | 325 | 14.0 | 24.0 | 0.00 | 0.00 | 0.00 | 100 | 1000.1 |
| 20260504224006 | 79 | 311 | 21.0 | 28.0 | 0.00 | 0.00 | 0.00 | 100 | 1000.0 |
| 20260504223505 | 79 | 322 | 20.0 | 30.0 | 0.00 | 0.00 | 0.00 | 100 | 999.9 |
| 20260504222005 | 81 | 323 | 19.0 | 30.0 | 0.00 | 0.00 | 0.00 | 100 | 999.5 |
| 20260504221005 | 82 | 302 | 20.0 | 28.0 | 0.00 | 0.00 | 0.00 | 100 | 999.4 |
| 20260504220505 | 82 | 321 | 16.0 | 21.0 | 0.00 | 0.00 | 0.00 | 100 | 999.3 |
| 20260504214005 | 83 | 239 | 9.0 | 21.0 | 0.00 | 0.00 | 0.00 | 100 | 999.3 |
| 20260504213505 | 81 | 246 | 10.0 | 13.0 | 0.00 | 0.00 | 0.00 | 100 | 999.5 |
| 20260504213005 | 81 | 252 | 13.0 | 21.0 | 0.00 | 0.00 | 0.00 | 100 | 999.6 |
| 20260504211505 | 83 | 257 | 12.0 | 20.0 | 0.00 | 0.00 | 0.00 | 100 | 999.6 |
| 20260504205505 | 82 | 262 | 14.0 | 22.0 | 0.00 | 0.00 | 0.00 | 100 | 999.6 |
| 20260504204005 | 82 | 248 | 13.0 | 20.0 | 0.00 | 0.00 | 0.00 | 100 | 1000.0 |
| 20260504203504 | 81 | 266 | 17.0 | 25.0 | 0.00 | 0.00 | 0.00 | 100 | 1000.0 |
| 20260504203005 | 81 | 263 | 16.0 | 26.0 | 0.00 | 0.00 | 0.00 | 100 | 1000.1 |
| 20260504202505 | 82 | 258 | 12.0 | 28.0 | 0.00 | 0.00 | 0.00 | 100 | 1000.1 |
| 20260504201504 | 80 | 253 | 13.0 | 22.0 | 0.00 | 0.00 | 0.00 | 100 | 1000.3 |
| 20260504201005 | 80 | 251 | 13.0 | 18.0 | 0.00 | 0.00 | 0.00 | 100 | 1000.4 |
| 20260504200505 | 81 | 257 | 15.0 | 22.0 | 0.00 | 0.00 | 0.00 | 100 | 1000.3 |
| 20260504195004 | 81 | 258 | 17.0 | 24.0 | 0.00 | 0.00 | 0.00 | 100 | 1000.5 |
| 20260504194505 | 81 | 258 | 14.0 | 20.0 | 0.00 | 0.00 | 0.00 | 100 | 1000.6 |
| 20260504194005 | 82 | 257 | 18.0 | 24.0 | 0.00 | 0.00 | 0.00 | 100 | 1000.6 |
| 20260504193504 | 82 | 264 | 17.0 | 26.0 | 0.00 | 0.00 | 0.00 | 100 | 1000.6 |
| 20260504193005 | 81 | 247 | 14.0 | 26.0 | 0.00 | 0.00 | 0.00 | 100 | 1000.6 |
| 20260504192505 | 81 | 248 | 15.0 | 23.0 | 0.00 | 0.00 | 0.00 | 100 | 1000.8 |
| 20260504192004 | 81 | 265 | 10.0 | 23.0 | 0.00 | 0.00 | 0.00 | 100 | 1000.8 |
| 20260504190505 | 83 | 271 | 17.0 | 26.0 | 0.00 | 0.00 | 0.00 | 100 | 1000.8 |
| 20260504190005 | 83 | 272 | 18.0 | 28.0 | 0.00 | 0.00 | 0.00 | 100 | 1000.8 |
| 20260504185505 | 82 | 253 | 12.0 | 20.0 | 0.00 | 0.00 | 0.00 | 100 | 1001.0 |
| 20260504184005 | 83 | 256 | 13.0 | 20.0 | 0.00 | 0.00 | 0.00 | 100 | 1001.1 |
| 20260504183505 | 83 | 225 | 14.0 | 24.0 | 0.00 | 0.00 | 0.00 | 100 | 1001.0 |
| 20260504183004 | 83 | 248 | 13.0 | 23.0 | 0.00 | 0.00 | 0.00 | 100 | 1001.0 |
| 20260504182005 | 82 | 269 | 13.0 | 22.0 | 0.00 | 0.00 | 0.00 | 100 | 1001.1 |
| 20260504175505 | 81 | 264 | 10.0 | 20.0 | 0.00 | 0.00 | 0.00 | 100 | 1001.0 |
| 20260504174005 | 80 | 241 | 13.0 | 18.0 | 0.00 | 0.00 | 0.00 | 100 | 1001.1 |
| 20260504173004 | 81 | 250 | 10.0 | 16.0 | 0.00 | 0.00 | 0.00 | 100 | 1001.5 |
| 20260504172505 | 80 | 218 | 8.0 | 16.0 | 0.00 | 0.00 | 0.00 | 100 | 1001.4 |
| 20260504170504 | 80 | 243 | 12.0 | 16.0 | 0.00 | 0.00 | 0.00 | 100 | 1001.8 |
| 20260504140505 | 64 | 206 | 5.0 | 8.0 | 0.00 | 0.00 | 0.00 | 100 | 1004.2 |
| 20260504081504 | 45 | 177 | 0.0 | 2.0 | 0.00 | 0.01 | 0.00 | 100 | 1006.8 |
| 20260504081004 | 45 | 177 | 1.0 | 1.0 | 0.00 | 0.01 | 0.00 | 100 | 1006.8 |
| 20260504050504 | 53 | 186 | 0.0 | 1.0 | 0.00 | 0.01 | 0.00 | 100 | 1008.6 |
| 20260504045504 | 53 | 186 | 2.0 | 3.0 | 0.00 | 0.01 | 0.01 | 100 | 1008.7 |
| 20260504042503 | 55 | 217 | 2.0 | 2.0 | 0.00 | 0.01 | 0.01 | 100 | 1008.8 |
| 20260504042004 | 55 | 217 | 1.0 | 2.0 | 0.00 | 0.01 | 0.01 | 100 | 1008.7 |
| 20260504040506 | 56 | 251 | 1.0 | 1.0 | 0.00 | 0.01 | 0.01 | 100 | 1008.8 |
| 20260504040006 | 56 | 251 | 2.0 | 3.0 | 0.00 | 0.01 | 0.01 | 100 | 1008.9 |
| 20260504035506 | 57 | 223 | 2.0 | 2.0 | 0.00 | 0.01 | 0.01 | 100 | 1009.0 |
| 20260504035006 | 57 | 284 | 1.0 | 2.0 | 0.00 | 0.01 | 0.01 | 100 | 1009.1 |
| 20260504034006 | 57 | 277 | 1.0 | 2.0 | 0.00 | 0.01 | 0.01 | 100 | 1009.1 |
| 20260504032005 | 60 | 220 | 3.0 | 6.0 | 0.00 | 0.01 | 0.01 | 100 | 1009.2 |
| 20260504031006 | 61 | 282 | 2.0 | 3.0 | 0.00 | 0.01 | 0.01 | 100 | 1009.0 |
| 20260504030506 | 62 | 280 | 2.0 | 2.0 | 0.00 | 0.01 | 0.01 | 100 | 1009.0 |
| 20260504030005 | 62 | 288 | 1.0 | 2.0 | 0.00 | 0.01 | 0.01 | 100 | 1008.9 |
| 20260504024505 | 63 | 291 | 2.0 | 3.0 | 0.00 | 0.01 | 0.01 | 100 | 1008.7 |
| 20260504024005 | 63 | 285 | 2.0 | 2.0 | 0.00 | 0.01 | 0.01 | 100 | 1008.7 |
| 20260504023505 | 63 | 269 | 3.0 | 3.0 | 0.00 | 0.01 | 0.01 | 100 | 1008.8 |
| 20260504022505 | 64 | 301 | 3.0 | 5.0 | 0.00 | 0.01 | 0.01 | 100 | 1008.6 |
| 20260504021505 | 64 | 306 | 4.0 | 7.0 | 0.00 | 0.01 | 0.01 | 100 | 1008.5 |
| 20260504015505 | 66 | 274 | 5.0 | 7.0 | 0.00 | 0.01 | 0.01 | 100 | 1008.4 |
| 20260504015005 | 66 | 277 | 6.0 | 7.0 | 0.00 | 0.01 | 0.01 | 100 | 1008.3 |
| 20260504014505 | 66 | 272 | 5.0 | 7.0 | 0.00 | 0.01 | 0.01 | 100 | 1008.4 |
| 20260504014005 | 67 | 267 | 5.0 | 7.0 | 0.00 | 0.01 | 0.01 | 100 | 1008.3 |
| 20260504012505 | 68 | 265 | 5.0 | 7.0 | 0.00 | 0.01 | 0.01 | 100 | 1008.1 |
| 20260504011506 | 69 | 262 | 6.0 | 8.0 | 0.00 | 0.01 | 0.01 | 100 | 1008.0 |
| 20260504011005 | 69 | 266 | 7.0 | 9.0 | 0.00 | 0.01 | 0.01 | 100 | 1007.9 |
| 20260504010505 | 70 | 271 | 7.0 | 9.0 | 0.00 | 0.01 | 0.01 | 100 | 1007.8 |
| 20260504010005 | 70 | 262 | 7.0 | 9.0 | 0.00 | 0.01 | 0.01 | 100 | 1007.8 |
| 20260504005505 | 71 | 273 | 8.0 | 10.0 | 0.00 | 0.01 | 0.01 | 100 | 1007.8 |
| 20260504004505 | 71 | 266 | 7.0 | 10.0 | 0.00 | 0.01 | 0.01 | 100 | 1007.8 |
| 20260504004005 | 72 | 258 | 6.0 | 9.0 | 0.00 | 0.01 | 0.01 | 100 | 1007.6 |
| 20260504001505 | 73 | 277 | 7.0 | 12.0 | 0.00 | 0.01 | 0.01 | 100 | 1007.5 |
| 20260504001005 | 73 | 284 | 9.0 | 13.0 | 0.00 | 0.01 | 0.01 | 100 | 1007.7 |
| 20260504000506 | 74 | 293 | 10.0 | 16.0 | 0.00 | 0.01 | 0.01 | 100 | 1007.6 |
| 20260504000006 | 74 | 280 | 11.0 | 16.0 | 0.00 | 0.01 | 0.01 | 100 | 1007.6 |
| 20260503235505 | 74 | 293 | 13.0 | 17.0 | 0.00 | 0.01 | 0.01 | 100 | 1007.4 |
| 20260503233505 | 75 | 292 | 14.0 | 20.0 | 0.00 | 0.01 | 0.01 | 100 | 1007.6 |